User: anonymous   Login
Location: Plymouth
(43.7570°N, 71.6890°W)
Time: 22:31:18
(UTC-04:00)
Language:

COSMOS 2406 - Orbit

View from above orbital plane
View from above orbital plane
View from above satellite
View from above satellite

Ground track
Ground track

The orbit data is extracted from the following two-line orbital elements,

1 28352U 04021A   15186.48493546 -.00000285  00000-0 -13106-3 0  9992
2 28352 071.0019 172.5385 0012507 099.9466 042.9949 14.11416911570287
Epoch (UTC): 05 July 2015 11:38:18
Eccentricity: 0.0012507
inclination: 71.0019°
perigee height: 845 km
apogee height: 863 km
right ascension of ascending node: 172.5385°
argument of perigee: 99.9466°
revolutions per day: 14.11416911
mean anomaly at epoch: 42.9949°
orbit number at epoch: 57028

The dashed part of the orbit path shows where the satellite is in the earth's shadow,  

DLR